[[{"header":{"parameterUnit":"m.s-1","parameterCategory":1,"la1":30.2991,"la2":30.254,"lo1":-89.0895,"lo2":-89.0444,"dy":0.0017,"dx":0.0017,"nx":28,"ny":28,"refTime":"2025-09-08T03:00:00:Z","depth":0,"parameterNumber":2,"parameterNumberName":"U-component_of_WINDS"},"data":[0,0,0,0,0,0,0,0,0,0,0,0,0,0,0,0,0,0,0,0,0,0,0,0,0,0,0,0,0,0,0,0,0,0,0,0,0,0,0,0,0,0,0,0,0,0,0,0,0,0,0,0,0,0,0,0,0,0,-2.2542,-2.2543,0,-2.2589,-2.259,-2.2591,-2.2485,-2.2481,-2.2478,-2.2475,-2.2525,-2.2529,-2.2533,0,0,0,0,0,0,0,0,0,0,0,0,0,-2.2362,-2.2366,-2.2542,-2.2543,-2.2544,-2.2589,-2.259,-2.2591,-2.2485,-2.2481,-2.2477,-2.2473,-2.2523,-2.2528,-2.2534,0,0,0,0,0,0,0,0,0,0,0,0,0,-2.2428,-2.2367,-2.2542,-2.2496,-2.2493,-2.2589,-2.259,-2.2591,-2.2486,-2.2481,-2.2476,-2.2471,-2.2521,-2.2528,-2.2535,-2.2678,0,0,-2.2555,-2.2558,0,0,0,0,0,0,0,0,-2.2424,-2.2435,-2.2503,-2.25,-2.2496,-2.2526,-2.2544,-2.262,-2.2487,-2.2489,-2.2475,-2.2469,-2.2529,-2.2535,-2.2555,-2.2681,-2.2683,-2.2556,-2.256,-2.2563,-2.2565,0,0,0,0,0,0,0,-2.242,-2.2432,-2.2561,-2.2504,-2.25,-2.2474,-2.2477,-2.2558,-2.2537,-2.2488,-2.2481,-2.2488,-2.2526,-2.2549,-2.2556,-2.2683,-2.2556,-2.2562,-2.2566,-2.2568,-2.2929,-2.2934,0,0,0,0,0,0,-2.2421,-2.2429,-2.2559,-2.2562,-2.2447,-2.2481,-2.2485,-2.2522,-2.2536,-2.2533,-2.2492,-2.2483,-2.254,-2.2548,-2.2557,-2.2727,-2.2563,-2.2569,-2.2573,-2.2923,-2.293,-2.2936,0,0,0,0,0,0,-2.2417,-2.2433,-2.2558,-2.2494,-2.2507,-2.249,-2.2531,-2.2525,-2.2547,-2.2539,-2.2534,-2.2519,-2.2536,-2.2547,-2.2649,-2.2727,-2.2572,-2.2578,-2.2917,-2.2926,-2.2933,-2.3068,0,0,0,0,0,0,-2.2413,-2.2433,-2.2487,-2.2496,-2.2511,-2.2649,-2.2536,-2.253,-2.2559,-2.2547,-2.2563,-2.256,-2.2533,-2.2639,-2.2656,-2.2734,-2.2583,-2.291,-2.2921,-2.2931,-2.3056,-2.308,-2.31,0,0,0,0,0,-2.2407,-2.2524,-2.2491,-2.2507,-2.2579,-2.2654,-2.2663,-2.2629,-2.2566,-2.2621,-2.2615,-2.256,-2.2715,-2.2651,-2.2668,-2.2749,-2.2905,-2.2918,-2.293,-2.3047,-2.3075,-2.3099,0,0,0,0,0,0,-2.2526,-2.2524,-2.2487,-2.2611,-2.2633,-2.2636,-2.2704,-2.266,-2.2701,-2.2688,-2.2644,-2.2648,-2.2759,-2.2763,-2.2691,-2.2889,-2.2799,-2.2816,-2.2882,-2.2909,-2.2931,-2.2929,-2.2589,0,0,0,0,0,-2.2566,-2.2627,-2.2622,-2.2731,-2.2744,-2.2723,-2.2754,-2.2725,-2.2747,-2.2756,-2.2758,-2.2781,-2.2835,-2.2872,-2.2921,-2.3055,-2.3058,-2.312,-2.3141,-2.3159,-2.3175,-2.3247,-2.3275,-2.2977,-2.2977,-2.2977,0,0,-2.2651,-2.2658,-2.2699,-2.2756,-2.277,-2.2834,-2.2731,-2.2804,-2.2851,-2.2767,-2.2864,-2.2865,-2.2888,-2.3007,-2.306,-2.3015,-2.3257,-2.3175,-2.3189,-2.3195,-2.3263,-2.3291,-2.3316,-2.2986,-2.2984,-2.2983,0,0,-2.2839,-2.285,-2.2942,-2.2958,-2.298,-2.2965,-2.2987,-2.2996,-2.2994,-2.3089,-2.3028,-2.3083,-2.3177,-2.3196,-2.3219,-2.3412,-2.3364,-2.3429,-2.3544,-2.3614,-2.3638,-2.3658,-2.3729,-2.3755,-2.3444,-2.3444,-2.3445,0,-2.2943,-2.3037,-2.2996,-2.3073,-2.31,-2.3025,-2.3119,-2.3136,-2.3174,-2.3194,-2.3142,-2.3259,-2.3269,-2.3391,-2.3439,-2.3458,-2.3483,-2.3429,-2.3638,-2.3658,-2.3677,-2.3744,-2.377,-2.3452,-2.3451,-2.3451,-2.345,0,-2.3163,-2.3229,-2.3301,-2.3339,-2.3374,-2.3459,-2.3431,-2.3471,-2.3438,-2.3428,-2.3526,-2.3535,-2.3585,-2.3612,-2.3581,-2.373,-2.3702,-2.3645,-2.3555,-2.3714,-2.3776,-2.3801,-2.3464,-2.3461,-2.3459,-2.3457,0,0,-2.3431,-2.3443,-2.3471,-2.3487,-2.3505,-2.3556,-2.3637,-2.3685,-2.3721,-2.3748,-2.3816,-2.3896,-2.3844,-2.3869,-2.3839,-2.3901,-2.4056,-2.3836,-2.3836,-2.3879,-2.4222,-2.4267,-2.4297,-2.4022,-2.4027,-2.403,-2.4221,0,-2.3618,-2.3758,-2.3723,-2.3862,-2.3923,-2.3852,-2.3923,-2.3942,-2.3934,-2.3985,-2.3975,-2.4034,-2.3958,-2.3973,-2.4031,-2.4025,-2.4124,-2.401,-2.4086,-2.409,-2.4086,-2.433,-2.4377,-2.4557,-2.4245,-2.4249,-2.4252,0,-2.3857,-2.3893,-2.4039,-2.4047,-2.4071,-2.4136,-2.4177,-2.4226,-2.4245,-2.4235,-2.4263,-2.4221,-2.4301,-2.4208,-2.4318,-2.4241,-2.4269,-2.4271,-2.4277,-2.4285,-2.4183,-2.4347,-2.4613,-2.4641,-2.4289,-2.4286,-2.4283,0,-2.404,-2.4125,-2.4224,-2.4239,-2.4251,-2.4298,-2.4305,-2.4319,-2.435,-2.4386,-2.4406,-2.445,-2.4476,-2.4511,-2.4482,-2.4416,-2.4598,-2.4502,-2.4593,-2.4594,-2.4637,-2.4635,-2.4914,-2.4651,-2.4651,-2.465,-2.465,0,-2.4255,-2.4348,-2.4306,-2.4367,-2.4468,-2.4426,-2.4527,-2.4525,-2.4539,-2.4598,-2.4538,-2.4595,-2.4552,-2.4605,-2.4583,-2.4679,-2.469,-2.4685,-2.4678,-2.4692,-2.4693,-2.4712,-2.47,-2.4657,-2.4656,-2.4654,-2.4653,0,-2.4479,-2.4455,-2.4557,-2.4559,-2.4561,-2.4636,-2.4637,-2.4694,-2.468,-2.4756,-2.4771,-2.4751,-2.4811,-2.4784,-2.4847,-2.4831,-2.4955,-2.493,-2.4949,-2.4944,-2.5037,-2.503,-2.5341,-2.538,-2.5089,-2.5092,-2.5094,0,-2.4619,-2.4689,-2.4697,-2.4733,-2.4744,-2.4801,-2.4832,-2.4792,-2.4827,-2.4854,-2.4908,-2.4962,-2.5003,-2.5102,-2.5093,-2.514,-2.5118,-2.5223,-2.5125,-2.5136,-2.5122,-2.512,-2.5127,-2.5244,-2.5248,-2.525,-2.5253,0,-2.4872,-2.4856,-2.4903,-2.4947,-2.4985,-2.5017,-2.5044,-2.5077,-2.5037,-2.508,-2.514,-2.5172,-2.5235,-2.529,-2.5332,-2.5338,-2.5291,-2.5283,-2.5307,-2.5323,-2.5332,-2.5331,-2.5006,-2.5277,-2.5275,-2.5273,-2.5272,-2.5271,-2.5059,-2.5118,-2.5133,-2.5188,-2.5203,-2.523,-2.5283,-2.5276,-2.5325,-2.5374,-2.5346,-2.5417,-2.5433,-2.5484,-2.5497,-2.5552,-2.551,-2.5545,-2.5554,-2.5564,-2.5577,-2.5321,-2.5559,-2.5558,-2.5557,-2.5557,-2.5556,0,-2.531,-2.5316,-2.5367,-2.5406,-2.5449,-2.5398,-2.5425,-2.5464,-2.5527,-2.5547,-2.5588,-2.5657,-2.571,-2.5704,-2.5752,-2.5797,-2.5776,-2.5811,-2.5809,-2.5812,-2.5611,-2.5586,-2.5827,-2.5827,-2.5827,-2.5827,-2.5827,-2.5827,-2.5446,-2.5543,-2.5529,-2.5633,-2.5637,-2.5706,-2.5726,-2.575,-2.5766,-2.5845,-2.5889,-2.5884,-2.5893,-2.5941,-2.5988,-2.5984,-2.6006,-2.605,-2.6039,-2.5852,-2.5826,-2.58,-2.5777,-2.6055,-2.6055,-2.6236,-2.6238,-2.6239]},{"header":{"parameterUnit":"m.s-1","parameterCategory":1,"la1":30.2991,"la2":30.254,"lo1":-89.0895,"lo2":-89.0444,"dy":0.0017,"dx":0.0017,"nx":28,"ny":28,"refTime":"2025-09-08T03:00:00:Z","depth":0,"parameterNumber":3,"parameterNumberName":"V-component_of_WINDS"},"data":[0,0,0,0,0,0,0,0,0,0,0,0,0,0,0,0,0,0,0,0,0,0,0,0,0,0,0,0,0,0,0,0,0,0,0,0,0,0,0,0,0,0,0,0,0,0,0,0,0,0,0,0,0,0,0,0,0,0,-5.7593,-5.7594,0,-5.7662,-5.7662,-5.7663,-5.7573,-5.757,-5.7567,-5.7564,-5.7629,-5.7634,-5.7638,0,0,0,0,0,0,0,0,0,0,0,0,0,-5.7378,-5.7382,-5.7593,-5.7594,-5.7595,-5.7661,-5.7662,-5.7663,-5.7574,-5.757,-5.7566,-5.7562,-5.7627,-5.7633,-5.7639,0,0,0,0,0,0,0,0,0,0,0,0,0,-5.7461,-5.7384,-5.7593,-5.7558,-5.7556,-5.7661,-5.7662,-5.7664,-5.7575,-5.757,-5.7565,-5.756,-5.7626,-5.7633,-5.764,-5.7781,0,0,-5.7661,-5.7664,0,0,0,0,0,0,0,0,-5.7457,-5.7469,-5.7562,-5.7561,-5.7558,-5.7604,-5.761,-5.7703,-5.7576,-5.7567,-5.7564,-5.7558,-5.7624,-5.7631,-5.7655,-5.7784,-5.7787,-5.7662,-5.7666,-5.7669,-5.7671,0,0,0,0,0,0,0,-5.7451,-5.7466,-5.762,-5.7564,-5.7561,-5.7537,-5.7544,-5.7627,-5.7622,-5.7568,-5.7561,-5.7571,-5.7622,-5.7648,-5.7655,-5.7788,-5.7662,-5.7668,-5.7673,-5.7675,-5.8034,-5.8039,0,0,0,0,0,0,-5.745,-5.7461,-5.7618,-5.7622,-5.7495,-5.7545,-5.7552,-5.7594,-5.7621,-5.762,-5.7575,-5.7567,-5.7638,-5.7647,-5.7657,-5.7823,-5.7669,-5.7676,-5.768,-5.8029,-5.8035,-5.8041,0,0,0,0,0,0,-5.7446,-5.7465,-5.7615,-5.754,-5.7557,-5.7554,-5.7602,-5.7598,-5.7624,-5.7627,-5.7624,-5.7603,-5.7635,-5.7647,-5.7751,-5.7824,-5.7679,-5.7686,-5.8022,-5.8031,-5.8038,-5.8157,0,0,0,0,0,0,-5.744,-5.7464,-5.7519,-5.7542,-5.7562,-5.7709,-5.7606,-5.7603,-5.7637,-5.7626,-5.7652,-5.7652,-5.7632,-5.7741,-5.7758,-5.7831,-5.7691,-5.8016,-5.8026,-5.8035,-5.8147,-5.8168,-5.8186,0,0,0,0,0,-5.7433,-5.7549,-5.7522,-5.7542,-5.7631,-5.7714,-5.7725,-5.7701,-5.7643,-5.7697,-5.7699,-5.7651,-5.7814,-5.7752,-5.7771,-5.7848,-5.8011,-5.8023,-5.8035,-5.8138,-5.8164,-5.8186,0,0,0,0,0,0,-5.7533,-5.7551,-5.7522,-5.765,-5.7681,-5.7698,-5.7766,-5.773,-5.7777,-5.7765,-5.7732,-5.7738,-5.7849,-5.7858,-5.7789,-5.7984,-5.7902,-5.7919,-5.7974,-5.7999,-5.8019,-5.8014,-5.7697,0,0,0,0,0,-5.7571,-5.7638,-5.765,-5.7761,-5.7779,-5.777,-5.7805,-5.7784,-5.7815,-5.7827,-5.7836,-5.7866,-5.7923,-5.7962,-5.8015,-5.8148,-5.8151,-5.8209,-5.8229,-5.8246,-5.826,-5.8329,-5.8355,-5.8079,-5.8079,-5.8079,0,0,-5.7648,-5.7666,-5.771,-5.7782,-5.7804,-5.7872,-5.7782,-5.7858,-5.7908,-5.7838,-5.7936,-5.7944,-5.7975,-5.8093,-5.8145,-5.8104,-5.8337,-5.8261,-5.8274,-5.8279,-5.8344,-5.837,-5.8393,-5.8087,-5.8086,-5.8085,0,0,-5.7823,-5.7845,-5.794,-5.7964,-5.7998,-5.7992,-5.8015,-5.8038,-5.804,-5.8139,-5.8087,-5.8145,-5.8245,-5.8269,-5.8294,-5.8478,-5.8435,-5.8496,-5.86,-5.8668,-5.869,-5.8709,-5.8773,-5.8797,-5.851,-5.8511,-5.8511,0,-5.7914,-5.8018,-5.7992,-5.8073,-5.8105,-5.8046,-5.814,-5.8164,-5.8214,-5.8236,-5.819,-5.8314,-5.8331,-5.8453,-5.8498,-5.8521,-5.8544,-5.8493,-5.8689,-5.8708,-5.8725,-5.8786,-5.881,-5.8518,-5.8517,-5.8516,-5.8516,0,-5.8127,-5.82,-5.8272,-5.8323,-5.8363,-5.845,-5.8436,-5.8479,-5.8454,-5.8452,-5.8552,-5.857,-5.8625,-5.8653,-5.8629,-5.8771,-5.8745,-5.8695,-5.8611,-5.8759,-5.8816,-5.8839,-5.8528,-5.8526,-5.8524,-5.8522,0,0,-5.8368,-5.8404,-5.8431,-5.8453,-5.8487,-5.8541,-5.8624,-5.868,-5.8717,-5.8753,-5.882,-5.8907,-5.886,-5.8889,-5.8867,-5.8927,-5.907,-5.8869,-5.8869,-5.8905,-5.9226,-5.9263,-5.929,-5.9041,-5.9046,-5.9049,-5.9223,0,-5.8543,-5.869,-5.8669,-5.8809,-5.8874,-5.8819,-5.8891,-5.8918,-5.8918,-5.8972,-5.897,-5.9032,-5.8967,-5.8983,-5.904,-5.9041,-5.9133,-5.9028,-5.9102,-5.9105,-5.9096,-5.932,-5.936,-5.9522,-5.9245,-5.9248,-5.9251,0,-5.8767,-5.8813,-5.896,-5.8982,-5.9009,-5.9075,-5.9123,-5.9176,-5.9205,-5.92,-5.9233,-5.92,-5.9281,-5.9197,-5.9307,-5.9236,-5.9264,-5.9269,-5.9275,-5.928,-5.9187,-5.933,-5.9574,-5.9598,-5.9286,-5.9283,-5.9281,0,-5.8927,-5.9025,-5.9125,-5.9146,-5.9175,-5.9222,-5.9236,-5.926,-5.9294,-5.9336,-5.9358,-5.9408,-5.9435,-5.9474,-5.9455,-5.9396,-5.9568,-5.9483,-5.9564,-5.9565,-5.9603,-5.96,-5.9853,-5.9624,-5.9623,-5.9623,-5.9622,0,-5.9123,-5.9215,-5.9197,-5.9259,-5.9359,-5.9333,-5.9433,-5.9439,-5.9462,-5.9522,-5.9476,-5.9533,-5.9505,-5.956,-5.9545,-5.9637,-5.965,-5.9647,-5.9642,-5.9651,-5.9651,-5.9669,-5.9657,-5.9629,-5.9628,-5.9626,-5.9625,0,-5.9318,-5.931,-5.9416,-5.9435,-5.9442,-5.9515,-5.953,-5.9586,-5.9583,-5.966,-5.9676,-5.967,-5.9731,-5.9716,-5.9783,-5.9773,-5.989,-5.9871,-5.9881,-5.9876,-5.9958,-5.995,-6.023,-6.0265,-6.0014,-6.0016,-6.0018,0,-5.9444,-5.9514,-5.9541,-5.9579,-5.9597,-5.9659,-5.9694,-5.967,-5.9708,-5.9746,-5.9798,-5.9856,-5.9901,-6.0002,-6.0002,-6.0052,-6.0033,-6.0128,-6.004,-6.0047,-6.0033,-6.0029,-6.0035,-6.0145,-6.0148,-6.015,-6.0152,0,-5.9668,-5.9661,-5.9714,-5.9766,-5.981,-5.9849,-5.9884,-5.9917,-5.9896,-5.9941,-6.0004,-6.0039,-6.0108,-6.0166,-6.0212,-6.0223,-6.0184,-6.018,-6.0201,-6.0211,-6.0213,-6.0212,-5.9927,-6.0173,-6.0171,-6.017,-6.0169,-6.0168,-5.9831,-5.989,-5.9918,-5.9979,-6.0003,-6.0037,-6.009,-6.0094,-6.0147,-6.0202,-6.0185,-6.0257,-6.0282,-6.034,-6.0358,-6.0412,-6.0376,-6.0408,-6.0415,-6.0423,-6.0433,-6.0206,-6.0421,-6.042,-6.0419,-6.0419,-6.0418,0,-6.0052,-6.0067,-6.0123,-6.0174,-6.0222,-6.0182,-6.0218,-6.026,-6.0324,-6.0352,-6.0398,-6.047,-6.0525,-6.053,-6.0581,-6.0624,-6.0607,-6.0638,-6.0634,-6.0637,-6.0463,-6.0439,-6.0651,-6.0651,-6.0651,-6.0651,-6.0651,-6.065,-6.0172,-6.0269,-6.0265,-6.0372,-6.0386,-6.0458,-6.0482,-6.0511,-6.0533,-6.0617,-6.0663,-6.0666,-6.0684,-6.0736,-6.0785,-6.0784,-6.0805,-6.0843,-6.0835,-6.0672,-6.0649,-6.0627,-6.0604,-6.0848,-6.0848,-6.1005,-6.1006,-6.1007]}]]